EW0349 Weather Reports


time (UTC)temp
F
wind
direction
speed
knots
gust
knots
rain 1hr
in
rain 24hr
in
rain mn
in
humidity
%
barometer
mb
20260504034559 77 293 0.0 3.5 0.00 0.00 0.00 43 1006.5
20260504033113 77 270 0.0 2.6 0.00 0.00 0.00 44 1006.3
20260504031600 79 284 0.0 1.7 0.00 0.00 0.00 43 1006.3
20260504030051 79 267 0.0 2.6 0.00 0.00 0.00 42 1006.3
20260504024556 80 255 0.9 3.5 0.00 0.00 0.00 41 1006.2
20260504023045 83 265 0.0 1.7 0.00 0.00 0.00 34 1006.1
20260504021547 85 261 0.0 1.7 0.00 0.00 0.00 31 1006.1
20260504020035 86 258 0.0 0.9 0.00 0.00 0.00 31 1006.2
20260504014532 86 252 0.0 2.6 0.00 0.00 0.00 30 1006.2
20260504013031 87 306 0.0 1.7 0.00 0.00 0.00 32 1006.3
20260503234558 88 305 0.0 1.7 0.00 0.00 0.00 30 1006.7
20260503233055 88 20 0.0 3.5 0.00 0.00 0.00 30 1006.9
20260503231554 88 22 0.0 2.6 0.00 0.00 0.00 33 1007.1
20260503230050 87 304 0.9 5.2 0.00 0.00 0.00 29 1007.4
20260503224541 87 21 0.9 2.6 0.00 0.00 0.00 36 1007.7
20260503223037 87 9 1.7 4.3 0.00 0.00 0.00 33 1007.9
20260503221533 86 331 0.9 3.5 0.00 0.00 0.00 39 1008.2
20260503220033 86 13 1.7 4.3 0.00 0.00 0.00 37 1008.4
20260503214522 84 34 0.9 4.3 0.00 0.00 0.00 41 1008.5
20260503213021 84 99 0.9 5.2 0.00 0.00 0.00 42 1008.7
20260503211515 82 61 0.9 6.1 0.00 0.00 0.00 46 1008.9
20260503210009 82 88 0.9 3.5 0.00 0.00 0.00 44 1009.0
20260503204505 81 56 0.9 3.5 0.00 0.00 0.00 47 1009.2
20260503203106 80 22 0.9 4.3 0.00 0.00 0.00 50 1009.4
20260503201557 79 84 0.9 4.3 0.00 0.00 0.00 51 1009.7
20260503200052 79 42 0.9 2.6 0.00 0.00 0.00 50 1009.8
20260503194550 78 277 0.0 3.5 0.00 0.00 0.00 53 1010.1
20260503193046 77 79 0.9 2.6 0.00 0.00 0.00 53 1010.2
20260503191540 75 65 0.9 2.6 0.00 0.00 0.00 56 1010.4
20260503190044 74 92 0.9 4.3 0.00 0.00 0.00 57 1010.5
20260503184530 73 28 0.9 3.5 0.00 0.00 0.00 58 1010.7
20260503183027 72 47 0.9 3.5 0.00 0.00 0.00 58 1010.9
20260503181522 70 61 0.9 4.3 0.00 0.00 0.00 57 1011.0
20260503180017 70 53 0.0 3.5 0.00 0.00 0.00 58 1011.1
20260503174512 69 69 0.9 3.5 0.00 0.00 0.00 61 1011.2
20260503173016 68 64 0.9 6.1 0.00 0.00 0.00 61 1011.2
20260503171503 67 17 2.6 5.2 0.00 0.00 0.00 60 1011.3
20260503100114 51 263 0.0 0.9 0.00 0.00 0.00 100 1011.7
20260503081544 52 263 0.0 0.0 0.00 0.00 0.00 22 1011.9
20260503071532 54 263 0.0 0.0 0.00 0.00 0.00 34 1012.3
20260503054525 57 263 0.0 0.0 0.00 0.00 0.00 53 1012.3
20260503053009 57 263 0.0 1.7 0.00 0.00 0.00 56 1012.2
20260503051508 58 263 0.0 0.0 0.00 0.00 0.00 59 1012.4
20260503050007 59 263 0.0 1.7 0.00 0.00 0.00 61 1012.4
20260503044511 59 263 0.0 0.9 0.00 0.00 0.00 63 1012.3
20260503043006 60 263 0.0 0.9 0.00 0.00 0.00 65 1012.3
20260503041506 60 263 0.0 0.0 0.00 0.00 0.00 65 1012.2
20260503040005 60 263 0.0 1.7 0.00 0.00 0.00 66 1011.9